Batumi International Airport


Codes: UGSB/BUS
Name: Batumi International Airport
City: Batumi
Country: Georgia
Elevation: 105 ft.
Wikipedia:

Photos at Batumi International Airport


   Photos courtesy of SpottingLog. You can add your own sightings and photos by signing up for a free trial today.



No photos found.

Weather at Batumi International Airport


Time (UTC)DescriptionTempratureWindCloud coverageVisibilityPressureHumidity
21-Feb-2024 03:00Overcast Clouds7°C2 mph, E100%10000m1025hPa93%
21-Feb-2024 06:00Broken Clouds7°C2 mph, NE71%10000m1025hPa85%
21-Feb-2024 09:00Scattered Clouds9°C4 mph, N37%10000m1025hPa77%
21-Feb-2024 12:00Clear Sky10°C4 mph, NW4%10000m1024hPa71%
21-Feb-2024 15:00Clear Sky8°C2 mph, NW8%10000m1025hPa81%
21-Feb-2024 18:00Clear Sky8°C0 mph, W9%10000m1025hPa80%
21-Feb-2024 21:00Broken Clouds8°C0 mph, SE56%10000m1025hPa81%
22-Feb-2024 00:00Broken Clouds8°C2 mph, E69%10000m1024hPa80%
22-Feb-2024 03:00Overcast Clouds8°C2 mph, E92%10000m1023hPa78%
22-Feb-2024 06:00Overcast Clouds9°C2 mph, NE85%10000m1023hPa70%
22-Feb-2024 09:00Scattered Clouds10°C7 mph, N37%10000m1022hPa70%
22-Feb-2024 12:00Broken Clouds10°C4 mph, SW67%10000m1022hPa74%
22-Feb-2024 15:00Overcast Clouds9°C7 mph, SW100%10000m1023hPa84%
22-Feb-2024 18:00Light Rain8°C4 mph, NW100%8486m1025hPa89%
22-Feb-2024 21:00Light Rain8°C2 mph, SW100%10000m1024hPa89%
23-Feb-2024 00:00Light Rain8°C2 mph, W100%10000m1025hPa91%
23-Feb-2024 03:00Light Rain8°C0 mph, SW100%10000m1025hPa91%
23-Feb-2024 06:00Light Rain8°C2 mph, N100%10000m1026hPa88%
23-Feb-2024 09:00Overcast Clouds10°C4 mph, N90%10000m1026hPa79%
23-Feb-2024 12:00Broken Clouds10°C7 mph, N61%10000m1025hPa76%
23-Feb-2024 15:00Clear Sky9°C4 mph, NE4%10000m1025hPa84%
23-Feb-2024 18:00Clear Sky9°C4 mph, NE3%10000m1025hPa80%
23-Feb-2024 21:00Clear Sky9°C4 mph, E2%10000m1025hPa72%
24-Feb-2024 00:00Clear Sky9°C4 mph, SE1%10000m1024hPa66%
24-Feb-2024 03:00Clear Sky9°C4 mph, SE3%10000m1024hPa65%
24-Feb-2024 06:00Clear Sky11°C2 mph, SE8%10000m1025hPa60%
24-Feb-2024 09:00Broken Clouds12°C4 mph, NW59%10000m1024hPa52%
24-Feb-2024 12:00Scattered Clouds12°C2 mph, W42%10000m1023hPa53%
24-Feb-2024 15:00Clear Sky11°C2 mph, SW3%10000m1023hPa65%
24-Feb-2024 18:00Clear Sky10°C4 mph, S2%10000m1024hPa64%
24-Feb-2024 21:00Clear Sky10°C2 mph, SE0%10000m1024hPa65%
25-Feb-2024 00:00Clear Sky9°C4 mph, SE0%10000m1024hPa64%
25-Feb-2024 03:00Clear Sky9°C4 mph, SE0%10000m1023hPa63%
25-Feb-2024 06:00Clear Sky10°C2 mph, E0%10000m1024hPa59%
25-Feb-2024 09:00Clear Sky11°C4 mph, N0%10000m1023hPa55%
25-Feb-2024 12:00Clear Sky12°C2 mph, NW0%10000m1021hPa56%
25-Feb-2024 15:00Clear Sky10°C2 mph, NW1%10000m1021hPa67%
25-Feb-2024 18:00Clear Sky10°C4 mph, E1%10000m1020hPa63%
25-Feb-2024 21:00Clear Sky9°C9 mph, E0%10000m1019hPa59%
26-Feb-2024 00:00Clear Sky8°C11 mph, E0%10000m1018hPa56%